| time (UTC) | temp F | wind direction | speed knots | gust knots | rain 1hr in | rain 24hr in | rain mn in | humidity % | barometer mb |
| 20260506111529 | 47 | 335 | 0.9 | 4.3 | 0.01 | 0.57 | 0.40 | 98 | 1007.3 |
| 20260506111029 | 47 | 274 | 1.7 | 4.3 | 0.01 | 0.57 | 0.40 | 98 | 1007.3 |
| 20260506110529 | 46 | 321 | 0.9 | 3.5 | 0.02 | 0.57 | 0.40 | 98 | 1007.2 |
| 20260506110028 | 47 | 71 | 0.9 | 2.6 | 0.02 | 0.57 | 0.40 | 98 | 1007.3 |
| 20260506105526 | 47 | 76 | 0.9 | 5.2 | 0.02 | 0.63 | 0.40 | 98 | 1007.3 |
| 20260506105026 | 47 | 340 | 0.9 | 4.3 | 0.02 | 0.63 | 0.40 | 98 | 1007.2 |
| 20260506104525 | 47 | 35 | 0.0 | 4.3 | 0.02 | 0.63 | 0.40 | 98 | 1007.2 |
| 20260506104026 | 47 | 82 | 0.9 | 2.6 | 0.02 | 0.63 | 0.40 | 98 | 1007.2 |
| 20260506103525 | 47 | 334 | 0.0 | 2.6 | 0.03 | 0.63 | 0.40 | 98 | 1007.1 |
| 20260506103025 | 47 | 62 | 0.9 | 4.3 | 0.02 | 0.62 | 0.39 | 98 | 1007.0 |
| 20260506102524 | 47 | 360 | 0.9 | 3.5 | 0.03 | 0.62 | 0.39 | 98 | 1007.0 |
| 20260506102022 | 47 | 92 | 0.9 | 3.5 | 0.03 | 0.62 | 0.39 | 98 | 1007.0 |
| 20260506101523 | 47 | 336 | 0.9 | 3.5 | 0.04 | 0.62 | 0.39 | 98 | 1006.9 |
| 20260506101026 | 47 | 334 | 0.0 | 3.5 | 0.04 | 0.62 | 0.39 | 98 | 1006.9 |
| 20260506100526 | 47 | 130 | 0.9 | 2.6 | 0.03 | 0.61 | 0.39 | 98 | 1006.8 |
| 20260506100021 | 47 | 93 | 0.0 | 3.5 | 0.03 | 0.61 | 0.39 | 98 | 1006.9 |
| 20260506095521 | 48 | 22 | 1.7 | 5.2 | 0.03 | 0.69 | 0.39 | 98 | 1006.9 |
| 20260506095021 | 48 | 348 | 0.9 | 5.2 | 0.03 | 0.69 | 0.39 | 98 | 1006.8 |
| 20260506094521 | 48 | 52 | 0.0 | 2.6 | 0.02 | 0.69 | 0.38 | 98 | 1006.8 |
| 20260506094021 | 47 | 67 | 0.9 | 3.5 | 0.02 | 0.69 | 0.38 | 98 | 1006.8 |
| 20260506093522 | 47 | 5 | 0.0 | 4.3 | 0.02 | 0.68 | 0.37 | 98 | 1006.8 |
| 20260506093019 | 48 | 355 | 0.9 | 4.3 | 0.02 | 0.68 | 0.37 | 98 | 1006.7 |
| 20260506092519 | 48 | 326 | 0.9 | 3.5 | 0.01 | 0.67 | 0.36 | 98 | 1006.8 |
| 20260506092021 | 48 | 167 | 0.9 | 3.5 | 0.01 | 0.67 | 0.36 | 98 | 1006.6 |
| 20260506091519 | 48 | 335 | 0.9 | 3.5 | 0.00 | 0.66 | 0.35 | 98 | 1006.4 |
| 20260506091019 | 48 | 74 | 0.9 | 3.5 | 0.00 | 0.66 | 0.35 | 98 | 1006.4 |
| 20260506090519 | 48 | 165 | 0.9 | 4.3 | 0.01 | 0.66 | 0.35 | 98 | 1006.4 |
| 20260506090026 | 48 | 59 | 0.9 | 5.2 | 0.01 | 0.66 | 0.35 | 98 | 1006.4 |
| 20260506085519 | 48 | 40 | 0.9 | 5.2 | 0.01 | 0.66 | 0.35 | 98 | 1006.4 |
| 20260506085017 | 48 | 320 | 0.9 | 4.3 | 0.01 | 0.66 | 0.35 | 98 | 1006.3 |
| 20260506084520 | 48 | 331 | 0.9 | 3.5 | 0.01 | 0.66 | 0.35 | 98 | 1006.3 |
| 20260506084017 | 48 | 307 | 0.0 | 4.3 | 0.01 | 0.66 | 0.35 | 98 | 1006.4 |
| 20260506083517 | 48 | 338 | 0.0 | 3.5 | 0.01 | 0.66 | 0.35 | 98 | 1006.3 |
| 20260506083017 | 48 | 330 | 1.7 | 3.5 | 0.01 | 0.66 | 0.35 | 98 | 1006.2 |
| 20260506082516 | 48 | 17 | 0.9 | 3.5 | 0.01 | 0.66 | 0.35 | 98 | 1006.3 |
| 20260506082016 | 48 | 348 | 0.0 | 3.5 | 0.01 | 0.66 | 0.35 | 98 | 1006.2 |
| 20260506081516 | 48 | 344 | 0.9 | 3.5 | 0.01 | 0.66 | 0.35 | 98 | 1006.3 |
| 20260506081016 | 48 | 360 | 0.9 | 3.5 | 0.01 | 0.66 | 0.35 | 98 | 1006.2 |
| 20260506080516 | 48 | 49 | 0.0 | 0.0 | 0.00 | 0.65 | 0.35 | 98 | 1006.2 |
| 20260506073514 | 48 | 355 | 0.0 | 3.5 | 0.01 | 0.65 | 0.35 | 98 | 1006.2 |
| 20260506073014 | 48 | 40 | 0.9 | 5.2 | 0.01 | 0.65 | 0.35 | 98 | 1006.1 |
| 20260506072513 | 48 | 82 | 1.7 | 5.2 | 0.01 | 0.65 | 0.35 | 98 | 1006.1 |
| 20260506072012 | 48 | 346 | 0.9 | 4.3 | 0.01 | 0.65 | 0.35 | 98 | 1006.1 |
| 20260506071511 | 48 | 332 | 0.9 | 4.3 | 0.02 | 0.65 | 0.35 | 98 | 1006.1 |
| 20260506071010 | 48 | 338 | 0.9 | 3.5 | 0.02 | 0.65 | 0.35 | 98 | 1006.0 |
| 20260506070610 | 48 | 344 | 0.9 | 3.5 | 0.02 | 0.65 | 0.35 | 98 | 1006.0 |
| 20260506062506 | 48 | 26 | 0.9 | 3.5 | 0.02 | 0.65 | 0.34 | 98 | 1005.8 |
| 20260506062006 | 48 | 355 | 1.7 | 3.5 | 0.02 | 0.65 | 0.34 | 98 | 1005.8 |
| 20260506061505 | 48 | 360 | 0.0 | 2.6 | 0.02 | 0.65 | 0.33 | 98 | 1005.8 |
| 20260506061004 | 48 | 309 | 0.0 | 2.6 | 0.02 | 0.65 | 0.33 | 98 | 1005.7 |
| 20260506060505 | 48 | 49 | 0.0 | 2.6 | 0.02 | 0.65 | 0.33 | 98 | 1005.7 |
| 20260506051058 | 47 | 322 | 0.0 | 1.7 | 0.02 | 0.63 | 0.31 | 98 | 1005.6 |
| 20260506050558 | 47 | 323 | 0.0 | 3.5 | 0.02 | 0.63 | 0.31 | 98 | 1005.6 |
| 20260506050110 | 47 | 348 | 0.0 | 3.5 | 0.02 | 0.63 | 0.31 | 98 | 1005.7 |
| 20260506044555 | 47 | 342 | 0.0 | 2.6 | 0.02 | 0.62 | 0.31 | 98 | 1005.6 |
| 20260506044055 | 47 | 284 | 0.0 | 2.6 | 0.02 | 0.62 | 0.31 | 98 | 1005.7 |
| 20260506043553 | 47 | 336 | 0.0 | 2.6 | 0.01 | 0.61 | 0.30 | 98 | 1005.6 |
| 20260506043100 | 47 | 325 | 0.0 | 5.2 | 0.01 | 0.61 | 0.30 | 98 | 1005.6 |
| 20260506042552 | 48 | 90 | 0.9 | 5.2 | 0.02 | 0.61 | 0.30 | 98 | 1005.6 |
| 20260506042053 | 48 | 9 | 0.9 | 3.5 | 0.02 | 0.61 | 0.30 | 98 | 1005.6 |
| 20260506041552 | 48 | 344 | 0.9 | 3.5 | 0.02 | 0.61 | 0.30 | 98 | 1005.5 |
| 20260506041052 | 48 | 111 | 0.9 | 3.5 | 0.02 | 0.61 | 0.30 | 98 | 1005.5 |
| 20260506040550 | 48 | 94 | 0.0 | 2.6 | 0.02 | 0.61 | 0.30 | 98 | 1005.5 |
| 20260506040100 | 48 | 44 | 0.9 | 5.2 | 0.03 | 0.61 | 0.30 | 98 | 1005.5 |
| 20260506035549 | 48 | 334 | 0.9 | 5.2 | 0.03 | 0.61 | 0.30 | 98 | 1005.5 |
| 20260506035050 | 48 | 306 | 0.9 | 4.3 | 0.02 | 0.61 | 0.28 | 98 | 1005.4 |
| 20260506034551 | 48 | 89 | 0.9 | 3.5 | 0.02 | 0.61 | 0.28 | 98 | 1005.4 |
| 20260506034047 | 48 | 340 | 0.9 | 3.5 | 0.02 | 0.61 | 0.28 | 98 | 1005.5 |
| 20260506033547 | 49 | 329 | 0.0 | 2.6 | 0.03 | 0.61 | 0.28 | 98 | 1005.6 |
| 20260506033049 | 49 | 15 | 0.9 | 2.6 | 0.03 | 0.61 | 0.28 | 98 | 1005.4 |
| 20260506032548 | 49 | 58 | 0.9 | 4.3 | 0.02 | 0.60 | 0.28 | 98 | 1005.5 |
| 20260506032046 | 49 | 70 | 0.0 | 3.5 | 0.02 | 0.60 | 0.28 | 98 | 1005.6 |
| 20260506031550 | 49 | 337 | 0.0 | 3.5 | 0.03 | 0.60 | 0.28 | 98 | 1005.6 |
| 20260506031047 | 49 | 122 | 0.9 | 3.5 | 0.02 | 0.59 | 0.28 | 98 | 1005.6 |
| 20260506030543 | 49 | 360 | 0.9 | 2.6 | 0.02 | 0.59 | 0.28 | 98 | 1005.6 |
| 20260506030045 | 49 | 284 | 0.0 | 3.5 | 0.02 | 0.57 | 0.27 | 98 | 1005.7 |
| 20260506025541 | 49 | 360 | 0.0 | 3.5 | 0.02 | 0.57 | 0.27 | 98 | 1005.7 |
| 20260506025040 | 49 | 165 | 0.9 | 4.3 | 0.02 | 0.57 | 0.27 | 98 | 1005.7 |
| 20260506024552 | 49 | 273 | 0.9 | 4.3 | 0.03 | 0.57 | 0.27 | 98 | 1005.8 |
| 20260506024040 | 49 | 296 | 0.9 | 2.6 | 0.03 | 0.57 | 0.27 | 98 | 1005.7 |
| 20260506023541 | 49 | 338 | 0.9 | 2.6 | 0.03 | 0.56 | 0.26 | 98 | 1005.8 |
| 20260506023039 | 49 | 167 | 0.9 | 6.1 | 0.03 | 0.56 | 0.26 | 98 | 1005.8 |
| 20260506022538 | 50 | 83 | 1.7 | 6.1 | 0.03 | 0.56 | 0.26 | 98 | 1005.8 |
| 20260506022037 | 50 | 87 | 0.9 | 3.5 | 0.04 | 0.56 | 0.26 | 98 | 1005.8 |
| 20260506021551 | 50 | 325 | 0.9 | 3.5 | 0.03 | 0.56 | 0.25 | 98 | 1005.8 |
| 20260506021038 | 50 | 349 | 0.0 | 2.6 | 0.04 | 0.56 | 0.25 | 98 | 1005.9 |
| 20260506020537 | 50 | 320 | 0.0 | 2.6 | 0.05 | 0.56 | 0.25 | 98 | 1005.9 |
| 20260506020037 | 50 | 39 | 0.0 | 3.5 | 0.04 | 0.56 | 0.24 | 98 | 1005.9 |
| 20260506015536 | 50 | 82 | 0.9 | 5.2 | 0.05 | 0.56 | 0.24 | 98 | 1005.9 |
| 20260506015036 | 50 | 183 | 0.9 | 3.5 | 0.06 | 0.56 | 0.24 | 98 | 1005.9 |
| 20260506014535 | 50 | 88 | 0.0 | 4.3 | 0.05 | 0.55 | 0.24 | 98 | 1005.9 |
| 20260506014034 | 50 | 10 | 1.7 | 4.3 | 0.06 | 0.55 | 0.24 | 98 | 1006.0 |
| 20260506013533 | 50 | 83 | 0.0 | 4.3 | 0.06 | 0.54 | 0.23 | 98 | 1006.0 |
| 20260506013033 | 50 | 64 | 1.7 | 4.3 | 0.06 | 0.54 | 0.23 | 98 | 1006.0 |
| 20260506012533 | 50 | 88 | 0.9 | 3.5 | 0.06 | 0.54 | 0.23 | 98 | 1006.0 |
| 20260506012033 | 50 | 340 | 0.9 | 5.2 | 0.06 | 0.54 | 0.22 | 98 | 1006.1 |
| 20260506011536 | 50 | 20 | 1.7 | 5.2 | 0.06 | 0.54 | 0.22 | 98 | 1006.1 |
| 20260506011032 | 50 | 128 | 0.9 | 2.6 | 0.06 | 0.53 | 0.21 | 98 | 1006.1 |
| 20260506010531 | 50 | 344 | 0.9 | 2.6 | 0.06 | 0.52 | 0.20 | 98 | 1006.1 |
| 20260506010030 | 50 | 17 | 0.0 | 3.5 | 0.06 | 0.52 | 0.20 | 98 | 1006.2 |
| 20260506005528 | 50 | 23 | 0.9 | 7.0 | 0.06 | 0.51 | 0.20 | 98 | 1006.2 |
| 20260506005028 | 50 | 355 | 1.7 | 7.0 | 0.06 | 0.50 | 0.19 | 98 | 1006.2 |
| 20260506004528 | 50 | 309 | 0.0 | 3.5 | 0.06 | 0.50 | 0.18 | 98 | 1006.3 |
| 20260506004027 | 50 | 338 | 1.7 | 3.5 | 0.06 | 0.50 | 0.18 | 98 | 1006.3 |
| 20260506003530 | 50 | 20 | 0.9 | 3.5 | 0.06 | 0.49 | 0.17 | 98 | 1006.3 |
| 20260506003027 | 50 | 23 | 0.9 | 3.5 | 0.06 | 0.48 | 0.17 | 98 | 1006.4 |
| 20260506002525 | 50 | 336 | 0.0 | 3.5 | 0.06 | 0.48 | 0.17 | 98 | 1006.4 |
| 20260506002025 | 50 | 330 | 0.9 | 3.5 | 0.06 | 0.47 | 0.16 | 98 | 1006.4 |
| 20260506001525 | 51 | 294 | 0.0 | 5.2 | 0.07 | 0.47 | 0.16 | 98 | 1006.6 |
| 20260506001024 | 51 | 335 | 0.9 | 3.5 | 0.06 | 0.46 | 0.15 | 98 | 1006.5 |
| 20260506000526 | 51 | 98 | 0.0 | 3.5 | 0.06 | 0.46 | 0.14 | 98 | 1006.6 |
| 20260506000023 | 51 | 355 | 0.0 | 1.7 | 0.06 | 0.46 | 0.14 | 98 | 1006.7 |
| 20260505235526 | 51 | 338 | 0.0 | 2.6 | 0.06 | 0.45 | 0.13 | 98 | 1006.7 |
| 20260505235022 | 51 | 74 | 0.0 | 3.5 | 0.06 | 0.44 | 0.13 | 98 | 1006.8 |
| 20260505234522 | 51 | 9 | 0.9 | 3.5 | 0.06 | 0.43 | 0.12 | 98 | 1006.9 |
| 20260505234023 | 51 | 313 | 0.0 | 2.6 | 0.06 | 0.43 | 0.12 | 98 | 1006.9 |
| 20260505233521 | 51 | 5 | 0.0 | 3.5 | 0.06 | 0.43 | 0.11 | 98 | 1006.9 |
| 20260505233020 | 51 | 330 | 0.9 | 3.5 | 0.07 | 0.43 | 0.11 | 98 | 1006.9 |
| 20260505232520 | 51 | 5 | 0.9 | 2.6 | 0.07 | 0.42 | 0.10 | 98 | 1007.0 |
| 20260505232024 | 51 | 38 | 0.9 | 2.6 | 0.07 | 0.41 | 0.09 | 98 | 1007.1 |
| 20260505231522 | 51 | 331 | 0.9 | 3.5 | 0.06 | 0.40 | 0.09 | 98 | 1007.0 |
| 20260505231022 | 51 | 298 | 0.9 | 3.5 | 0.07 | 0.40 | 0.09 | 98 | 1007.0 |
| 20260505230518 | 51 | 340 | 0.0 | 2.6 | 0.07 | 0.39 | 0.08 | 98 | 1007.1 |
| 20260505230018 | 51 | 310 | 0.9 | 2.6 | 0.08 | 0.39 | 0.08 | 98 | 1007.1 |
| 20260505225517 | 51 | 5 | 0.9 | 4.3 | 0.07 | 0.39 | 0.07 | 98 | 1007.2 |
| 20260505225016 | 51 | 301 | 0.9 | 4.3 | 0.07 | 0.38 | 0.06 | 98 | 1007.2 |
| 20260505224516 | 51 | 323 | 0.9 | 3.5 | 0.07 | 0.38 | 0.06 | 98 | 1007.2 |
| 20260505224014 | 51 | 336 | 0.9 | 3.5 | 0.07 | 0.37 | 0.06 | 98 | 1007.3 |
| 20260505223614 | 51 | 360 | 0.0 | 2.6 | 0.07 | 0.36 | 0.05 | 98 | 1007.3 |
| 20260505223013 | 51 | 5 | 0.0 | 2.6 | 0.07 | 0.35 | 0.04 | 98 | 1007.3 |
| 20260505222514 | 51 | 9 | 0.9 | 2.6 | 0.06 | 0.35 | 0.03 | 98 | 1007.4 |
| 20260505222013 | 51 | 355 | 0.0 | 2.6 | 0.06 | 0.34 | 0.02 | 98 | 1007.3 |
| 20260505221514 | 51 | 276 | 0.0 | 1.7 | 0.07 | 0.34 | 0.02 | 98 | 1007.4 |
| 20260505221013 | 51 | 311 | 0.0 | 0.9 | 0.08 | 0.33 | 0.02 | 98 | 1007.5 |
| 20260505220512 | 51 | 327 | 0.0 | 2.6 | 0.07 | 0.32 | 0.01 | 98 | 1007.4 |
| 20260505220010 | 51 | 321 | 0.9 | 3.5 | 0.07 | 0.31 | 0.00 | 98 | 1007.4 |
| 20260505215509 | 51 | 303 | 1.7 | 3.5 | 0.07 | 0.32 | 0.31 | 98 | 1007.5 |
| 20260505215009 | 51 | 17 | 0.0 | 2.6 | 0.07 | 0.31 | 0.31 | 98 | 1007.4 |
| 20260505214511 | 51 | 327 | 0.0 | 2.6 | 0.07 | 0.31 | 0.31 | 98 | 1007.5 |
| 20260505214009 | 51 | 341 | 0.0 | 2.6 | 0.06 | 0.31 | 0.30 | 98 | 1007.6 |
| 20260505213510 | 51 | 341 | 0.0 | 3.5 | 0.06 | 0.30 | 0.28 | 98 | 1007.6 |
| 20260505213009 | 51 | 348 | 0.0 | 3.5 | 0.06 | 0.28 | 0.28 | 98 | 1007.7 |
| 20260505212507 | 51 | 343 | 0.0 | 2.6 | 0.06 | 0.28 | 0.28 | 98 | 1007.7 |
| 20260505212007 | 51 | 313 | 0.0 | 3.5 | 0.06 | 0.28 | 0.28 | 98 | 1007.7 |
| 20260505211506 | 51 | 345 | 0.9 | 3.5 | 0.04 | 0.27 | 0.26 | 98 | 1007.7 |
| 20260505211006 | 51 | 55 | 0.0 | 1.7 | 0.04 | 0.26 | 0.25 | 98 | 1007.8 |
| 20260505210508 | 51 | 349 | 0.0 | 3.5 | 0.05 | 0.26 | 0.25 | 98 | 1007.8 |
| 20260505210005 | 51 | 185 | 0.9 | 3.5 | 0.05 | 0.25 | 0.24 | 98 | 1007.8 |
| 20260505205505 | 51 | 325 | 0.0 | 2.6 | 0.05 | 0.25 | 0.24 | 98 | 1007.9 |
| 20260505205004 | 51 | 342 | 0.0 | 2.6 | 0.05 | 0.24 | 0.24 | 98 | 1007.9 |
| 20260505204504 | 51 | 36 | 0.0 | 4.3 | 0.06 | 0.24 | 0.24 | 98 | 1007.9 |
| 20260505204003 | 51 | 321 | 0.0 | 3.5 | 0.06 | 0.24 | 0.24 | 98 | 1007.9 |
| 20260505203603 | 51 | 340 | 0.9 | 3.5 | 0.06 | 0.24 | 0.24 | 98 | 1007.9 |
| 20260505203003 | 51 | 336 | 0.9 | 3.5 | 0.06 | 0.24 | 0.23 | 98 | 1007.9 |
| 20260505202503 | 51 | 277 | 0.9 | 3.5 | 0.05 | 0.23 | 0.22 | 97 | 1008.0 |
| 20260505202002 | 51 | 89 | 0.9 | 2.6 | 0.06 | 0.23 | 0.22 | 97 | 1007.9 |
| 20260505201510 | 51 | 355 | 0.9 | 2.6 | 0.06 | 0.23 | 0.22 | 97 | 1008.0 |
| 20260505201002 | 51 | 213 | 0.0 | 3.5 | 0.05 | 0.22 | 0.21 | 97 | 1007.9 |
| 20260505200503 | 51 | 326 | 0.9 | 5.2 | 0.05 | 0.21 | 0.20 | 97 | 1007.9 |
| 20260505200001 | 51 | 306 | 1.7 | 5.2 | 0.04 | 0.20 | 0.20 | 97 | 1007.9 |
| 20260505195501 | 51 | 326 | 0.0 | 3.5 | 0.05 | 0.21 | 0.20 | 97 | 1007.9 |
| 20260505195001 | 51 | 318 | 0.0 | 3.5 | 0.04 | 0.20 | 0.19 | 97 | 1007.9 |
| 20260505194500 | 51 | 338 | 0.0 | 3.5 | 0.03 | 0.20 | 0.18 | 97 | 1007.9 |
| 20260505194100 | 51 | 319 | 0.0 | 3.5 | 0.03 | 0.20 | 0.18 | 97 | 1007.9 |
| 20260505193604 | 51 | 267 | 0.0 | 3.5 | 0.03 | 0.20 | 0.18 | 97 | 1008.0 |
| 20260505193100 | 51 | 5 | 0.9 | 3.5 | 0.02 | 0.19 | 0.17 | 97 | 1008.0 |
| 20260505192559 | 51 | 224 | 0.0 | 1.7 | 0.02 | 0.19 | 0.17 | 97 | 1008.0 |
| 20260505192059 | 51 | 338 | 0.0 | 1.7 | 0.02 | 0.18 | 0.17 | 97 | 1008.0 |
| 20260505191559 | 51 | 349 | 0.0 | 3.5 | 0.02 | 0.18 | 0.17 | 97 | 1008.0 |
| 20260505191059 | 51 | 311 | 0.9 | 3.5 | 0.02 | 0.18 | 0.17 | 97 | 1008.0 |
| 20260505190658 | 51 | 337 | 0.9 | 3.5 | 0.02 | 0.18 | 0.17 | 97 | 1008.0 |
| 20260505190059 | 51 | 333 | 0.0 | 2.6 | 0.01 | 0.17 | 0.16 | 97 | 1008.0 |
| 20260505185557 | 51 | 311 | 0.0 | 2.6 | 0.00 | 0.17 | 0.15 | 97 | 1008.0 |
| 20260505185057 | 51 | 22 | 0.0 | 2.6 | 0.00 | 0.17 | 0.15 | 97 | 1008.0 |
| 20260505184557 | 51 | 66 | 0.0 | 3.5 | 0.00 | 0.17 | 0.15 | 97 | 1007.9 |
| 20260505184057 | 51 | 64 | 0.9 | 4.3 | 0.00 | 0.17 | 0.15 | 96 | 1008.0 |
| 20260505183557 | 51 | 336 | 1.7 | 5.2 | 0.00 | 0.17 | 0.15 | 96 | 1008.0 |
| 20260505183105 | 51 | 266 | 0.9 | 5.2 | 0.00 | 0.17 | 0.15 | 96 | 1008.0 |
| 20260505182555 | 51 | 337 | 0.9 | 5.2 | 0.00 | 0.17 | 0.15 | 96 | 1008.0 |
| 20260505182055 | 51 | 329 | 0.0 | 3.5 | 0.00 | 0.17 | 0.15 | 97 | 1008.0 |
| 20260505181555 | 51 | 340 | 0.0 | 3.5 | 0.00 | 0.17 | 0.15 | 96 | 1008.0 |
| 20260505181055 | 51 | 327 | 0.0 | 3.5 | 0.00 | 0.17 | 0.15 | 96 | 1008.0 |
| 20260505180555 | 51 | 325 | 0.9 | 3.5 | 0.00 | 0.17 | 0.15 | 96 | 1008.0 |
| 20260505180056 | 51 | 331 | 0.9 | 3.5 | 0.00 | 0.17 | 0.15 | 96 | 1008.0 |
| 20260505175553 | 51 | 319 | 0.0 | 3.5 | 0.00 | 0.20 | 0.15 | 96 | 1008.1 |
| 20260505175053 | 51 | 333 | 0.9 | 3.5 | 0.00 | 0.20 | 0.15 | 96 | 1008.1 |
| 20260505174559 | 51 | 338 | 0.0 | 4.3 | 0.00 | 0.20 | 0.15 | 96 | 1008.0 |
| 20260505174053 | 52 | 5 | 1.7 | 4.3 | 0.00 | 0.20 | 0.15 | 96 | 1008.0 |
| 20260505173553 | 52 | 333 | 0.9 | 3.5 | 0.00 | 0.20 | 0.15 | 96 | 1008.1 |
| 20260505173052 | 52 | 30 | 0.9 | 3.5 | 0.00 | 0.20 | 0.15 | 96 | 1008.0 |
| 20260505172552 | 52 | 346 | 0.9 | 3.5 | 0.00 | 0.20 | 0.15 | 96 | 1008.1 |
| 20260505172055 | 52 | 246 | 0.0 | 3.5 | 0.00 | 0.20 | 0.15 | 96 | 1008.1 |
| 20260505171551 | 52 | 311 | 0.0 | 4.3 | 0.00 | 0.20 | 0.15 | 96 | 1008.1 |
| 20260505171051 | 52 | 171 | 0.0 | 4.3 | 0.00 | 0.20 | 0.15 | 96 | 1008.1 |
| 20260505170549 | 52 | 23 | 0.9 | 4.3 | 0.00 | 0.20 | 0.15 | 96 | 1008.1 |
| 20260505170150 | 52 | 325 | 0.9 | 5.2 | 0.00 | 0.20 | 0.15 | 96 | 1008.1 |
| 20260505165548 | 52 | 26 | 0.9 | 5.2 | 0.00 | 0.21 | 0.15 | 96 | 1008.1 |
| 20260505165048 | 52 | 296 | 0.0 | 4.3 | 0.00 | 0.21 | 0.15 | 96 | 1008.2 |
| 20260505164548 | 52 | 248 | 0.9 | 4.3 | 0.00 | 0.21 | 0.15 | 96 | 1008.2 |
| 20260505164048 | 52 | 300 | 0.0 | 3.5 | 0.00 | 0.21 | 0.15 | 96 | 1008.1 |
| 20260505163547 | 52 | 348 | 0.9 | 7.0 | 0.00 | 0.21 | 0.15 | 96 | 1008.2 |
| 20260505163047 | 52 | 294 | 0.9 | 7.0 | 0.00 | 0.21 | 0.15 | 96 | 1008.3 |
| 20260505162546 | 52 | 259 | 0.9 | 3.5 | 0.00 | 0.21 | 0.15 | 96 | 1008.2 |
| 20260505162046 | 52 | 5 | 0.0 | 4.3 | 0.00 | 0.21 | 0.15 | 96 | 1008.2 |
| 20260505161545 | 52 | 13 | 0.9 | 4.3 | 0.00 | 0.21 | 0.15 | 96 | 1008.3 |
| 20260505161045 | 52 | 327 | 0.9 | 3.5 | 0.00 | 0.21 | 0.15 | 96 | 1008.3 |
| 20260505160545 | 52 | 298 | 0.9 | 4.3 | 0.00 | 0.21 | 0.15 | 96 | 1008.3 |
| 20260505153042 | 52 | 254 | 0.9 | 3.5 | 0.00 | 0.22 | 0.15 | 96 | 1008.5 |
| 20260505152541 | 53 | 344 | 0.9 | 5.2 | 0.00 | 0.22 | 0.15 | 96 | 1008.5 |
| 20260505152041 | 53 | 325 | 1.7 | 5.2 | 0.00 | 0.22 | 0.15 | 97 | 1008.6 |
| 20260505151541 | 53 | 42 | 0.9 | 5.2 | 0.00 | 0.22 | 0.15 | 97 | 1008.6 |
| 20260505151040 | 53 | 69 | 0.9 | 3.5 | 0.00 | 0.22 | 0.15 | 97 | 1008.6 |
| 20260505150540 | 53 | 46 | 0.0 | 5.2 | 0.00 | 0.22 | 0.15 | 97 | 1008.5 |
| 20260505140534 | 53 | 348 | 1.7 | 7.0 | 0.02 | 0.22 | 0.15 | 97 | 1008.7 |
| 20260505125026 | 54 | 348 | 1.7 | 5.2 | 0.00 | 0.20 | 0.13 | 97 | 1009.2 |
| 20260505124533 | 54 | 283 | 0.9 | 4.3 | 0.00 | 0.20 | 0.13 | 97 | 1009.1 |
| 20260505124027 | 54 | 145 | 0.9 | 4.3 | 0.00 | 0.20 | 0.13 | 97 | 1009.2 |
| 20260505123526 | 54 | 339 | 0.0 | 5.2 | 0.00 | 0.20 | 0.13 | 97 | 1009.2 |
| 20260505123030 | 54 | 325 | 0.0 | 5.2 | 0.00 | 0.20 | 0.13 | 97 | 1009.2 |
| 20260505122526 | 54 | 50 | 0.9 | 4.3 | 0.00 | 0.20 | 0.13 | 97 | 1009.2 |
| 20260505122027 | 54 | 9 | 0.9 | 4.3 | 0.00 | 0.20 | 0.13 | 97 | 1009.2 |
| 20260505121534 | 55 | 265 | 0.9 | 3.5 | 0.00 | 0.20 | 0.13 | 97 | 1009.2 |
| 20260505121026 | 55 | 78 | 0.9 | 3.5 | 0.00 | 0.20 | 0.13 | 97 | 1009.2 |
| 20260505120526 | 54 | 66 | 0.9 | 4.3 | 0.00 | 0.20 | 0.13 | 97 | 1009.2 |
| 20260505120037 | 54 | 315 | 0.9 | 4.3 | 0.00 | 0.20 | 0.13 | 97 | 1009.2 |
| 20260505115527 | 54 | 56 | 0.0 | 4.3 | 0.00 | 0.20 | 0.13 | 97 | 1009.3 |
| 20260505115027 | 54 | 78 | 0.9 | 4.3 | 0.00 | 0.20 | 0.13 | 97 | 1009.3 |
| 20260505114524 | 54 | 335 | 0.9 | 7.0 | 0.01 | 0.20 | 0.13 | 97 | 1009.3 |
| 20260505114024 | 54 | 306 | 1.7 | 7.0 | 0.02 | 0.20 | 0.13 | 97 | 1009.3 |
| 20260505113523 | 54 | 57 | 1.7 | 5.2 | 0.02 | 0.20 | 0.13 | 97 | 1009.3 |
| 20260505113023 | 54 | 50 | 0.9 | 4.3 | 0.02 | 0.20 | 0.13 | 97 | 1009.4 |
| 20260505112523 | 54 | 109 | 0.9 | 3.5 | 0.03 | 0.20 | 0.13 | 97 | 1009.4 |
| 20260505112022 | 54 | 275 | 0.9 | 3.5 | 0.04 | 0.20 | 0.13 | 97 | 1009.3 |